SL-14 DEB, 45340

Orbit data source: Space-Track

SL-14 DEB, 45340 is space debris in LEO originally from a launch on Thu, 15 Aug 1991 UTC launched from the Plesetsk Missile And Space Complex (PKMTR). Debris objects in space refer to the collection of defunct objects orbiting the Earth. Examples of debris include non-operational satellites, rocket bodies, and fragments generated from explosions, collisions, or faulty payload assembly.

Loading next visibility...
Identifier
45340, 1991-056CE
Orbit
LEO
Country
Flag of CISCIS
Related business
Manufacturer
Unknown
Mission
Spacecraft
Bus & Motor
Unknown
Mass
Unknown
Launch date (UTC)
1991-08-15 (35 years ago)
Launch vehicle
Unknown
Launch site
Plesetsk Missile And Space Complex (PKMTR)
Object type
Payload
Rocket body
Debris
Shape & HBR
Unknown shape, 0.1 m
Radar Cross Section
Medium (>0.1 m² and <1 m²)

Expand to show TLE details & history
Last TLE update: 12 hours ago

TLE from 12 hours ago
0 SL-14 DEB
1 45340U 91056CE  26254.43191790  .00006012  00000-0  96610-2 0  9993
2 45340  82.5299  44.7150 0084159 357.1972   2.8684 13.47119358316207
Epoch: 2026-09-11T10:21Z
TLE epoch observation values (Epoch: 2026-09-11T10:21:57.706Z)
Latitude
-0.00002°
Longitude
-101.23081°
Altitude
1,023.003 km
Speed
7.371 km/s
True Right ascension
02h 58m 51s
True Declination
0° 00' 00"
Sunlit
Object was in full shadow at epoch
Visualization orbit readout
Latitude
Unknown
Longitude
Unknown
Altitude
Unknown
Speed
Unknown
Apparent Right ascension
Unknown
Apparent Declination
Unknown
Sunlit
N/A
Visualization observer readout
Local Sidereal Time
14:57:22
Azimuth
Unknown
Elevation
Unknown
Doppler factor
Unknown
Orbital elements
Apogee altitude
1,142.847 km
Perigee altitude
1,017.312 km
Semi-major axis
7,458.216 km
Eccentricity
0.00842
Inclination
82.5299°
RAAN
44.715°
Arg. of periapsis
357.1972°
True anomaly
2.91717°
Mean anomaly
2.8684°
Eccentric anomaly
2.89273°
Mean motion
3.3697 °/min
Orbital period
106.83 mins
BSTAR
0.009661
Loading maneuver chart data...
Computing Atmospheric mass density...
Loading historical data...
Loading historical data...
Loading historical data...
Loading historical data...
Loading historical data...
Loading historical data...
Loading historical data...

Documentation

Showing up to 5 results
|